Change the Weather History Date:

Monday, August 19, 2013

  Actual Average Record
Temperature  
Mean Temperature 64 °F -  
Max Temperature 72 °F - - ()
Min Temperature 55 °F - - ()
Degree Days  
Heating Degree Days 2    
Growing Degree Days 14 (Base 50)    
Moisture  
Dew Point 49 °F    
Average Humidity 56    
Maximum Humidity 93    
Minimum Humidity 27    
Precipitation  
Precipitation 0.00 in - - ()
Sea Level Pressure  
Sea Level Pressure 30.11 in    
Wind  
Wind Speed 11 mph ()    
Max Wind Speed 17 mph    
Max Gust Speed -    
Visibility 7.3 miles    
Events Rain    
T = Trace of Precipitation, MM = Missing Value Source: Averaged Metar Reports

Daily Weather History Graph

Daily Weather History Graph

Search for Another Location

Airport or City:

Trip Planner

Search our weather history database for the weather conditions in past years. The results will help you decide how hot, cold, wet, or windy it might be!

Date:

Astronomy

Aug. 19, 2013 Rise Set
Actual Time 5:47 AM BST 8:08 PM BST
Civil Twilight 5:10 AM BST 8:44 PM BST
Nautical Twilight 4:23 AM BST 9:30 PM BST
Astronomical Twilight 3:29 AM BST 10:24 PM BST
Moon 6:49 PM BST (8/19) 3:42 AM BST (8/19)
Length of Visible Light 15h 34m
Length of Day
14h 21m
Waxing Gibbous, 96% of the Moon is Illuminated
Aug 19
Waxing Gibbous
Aug 21
Full
Aug 28
Last Quarter
Sep 5
New
Sep 12
First Quarter

Hourly Weather History & Observations

Time (BST) Temp. Dew Point Humidity Pressure Visibility Wind Dir Wind Speed Gust Speed Precip Events Conditions
12:50 AM 62 °F 57 °F 80% 29.90 in 28 mi West 11.5 mph - - Rain Rain
3:50 AM 56 °F 54 °F 93% 29.94 in 28 mi West 11.5 mph - -   Scattered Clouds
5:50 AM 55.4 °F 51.8 °F 88% 29.98 in 6.2 mi WNW 10.4 mph - N/A   Partly Cloudy
6:20 AM 57.2 °F 51.8 °F 82% 29.98 in 6.2 mi NW 12.7 mph - N/A   Partly Cloudy
6:50 AM 59 °F 53 °F 74% 29.99 in 19 mi NW 11.5 mph - -  
6:50 AM 57.2 °F 51.8 °F 82% 29.98 in 6.2 mi NW 13.8 mph - N/A   Partly Cloudy
7:20 AM 59.0 °F 53.6 °F 82% 30.01 in 6.2 mi NW 12.7 mph - N/A   Partly Cloudy
7:50 AM 60.8 °F 53.6 °F 77% 30.01 in - NW 12.7 mph - N/A   Clear
8:20 AM 60.8 °F 53.6 °F 77% 30.04 in - WNW 13.8 mph - N/A   Clear
8:50 AM 62.6 °F 53.6 °F 72% 30.04 in - WNW 12.7 mph - N/A   Clear
9:20 AM 62.6 °F 53.6 °F 72% 30.06 in 6.2 mi WNW 15.0 mph - N/A   Partly Cloudy
9:50 AM 63 °F 54 °F 64% 30.08 in 15 mi WNW 15.0 mph - -   Scattered Clouds
9:50 AM 62.6 °F 53.6 °F 72% 30.06 in 6.2 mi WNW 17.3 mph - N/A   Partly Cloudy
10:20 AM 64.4 °F 51.8 °F 64% 30.09 in 6.2 mi WNW 11.5 mph - N/A   Partly Cloudy
10:50 AM 66.2 °F 51.8 °F 60% 30.09 in 6.2 mi WNW 10.4 mph - N/A   Partly Cloudy
11:20 AM 66.2 °F 51.8 °F 60% 30.09 in 6.2 mi WNW 11.5 mph - N/A   Partly Cloudy
11:50 AM 68.0 °F 50.0 °F 52% 30.09 in 6.2 mi NW 13.8 mph - N/A   Partly Cloudy
12:20 PM 69.8 °F 50.0 °F 49% 30.12 in 6.2 mi WNW 15.0 mph - N/A   Partly Cloudy
12:50 PM 68 °F 48 °F 37% 30.13 in 25 mi WNW 13.8 mph - -   Mostly Cloudy
12:50 PM 68.0 °F 48.2 °F 49% 30.12 in 6.2 mi NW 16.1 mph - N/A   Partly Cloudy
1:20 PM 69.8 °F 48.2 °F 46% 30.12 in 6.2 mi NW 16.1 mph - N/A   Partly Cloudy
1:50 PM 69.8 °F 46.4 °F 43% 30.12 in 6.2 mi NW 13.8 mph - N/A   Partly Cloudy
2:20 PM 69.8 °F 46.4 °F 43% 30.15 in 6.2 mi NW 13.8 mph - N/A   Partly Cloudy
2:50 PM 69.8 °F 44.6 °F 40% 30.15 in 6.2 mi NW 13.8 mph - N/A   Partly Cloudy
3:20 PM 69.8 °F 44.6 °F 40% 30.15 in 6.2 mi NW 11.5 mph - N/A   Partly Cloudy
3:50 PM 72 °F 45 °F 27% 30.17 in 19 mi NW 11.5 mph - -   Scattered Clouds
3:50 PM 69.8 °F 46.4 °F 43% 30.15 in 6.2 mi NW 10.4 mph - N/A   Partly Cloudy
4:20 PM 71.6 °F 46.4 °F 41% 30.18 in 6.2 mi NW 12.7 mph - N/A   Partly Cloudy
4:50 PM 69.8 °F 44.6 °F 40% 30.18 in 6.2 mi NW 12.7 mph - N/A   Partly Cloudy
5:20 PM 69.8 °F 44.6 °F 40% 30.18 in 6.2 mi WNW 11.5 mph - N/A   Partly Cloudy
5:50 PM 69.8 °F 44.6 °F 40% 30.18 in 6.2 mi WNW 11.5 mph - N/A   Partly Cloudy
6:20 PM 69.8 °F 44.6 °F 40% 30.21 in 6.2 mi NW 10.4 mph - N/A   Partly Cloudy
6:50 PM 69 °F 45 °F 31% 30.21 in 28 mi NW 5.8 mph - -  
6:50 PM 68.0 °F 44.6 °F 43% 30.21 in 6.2 mi NW 6.9 mph - N/A   Partly Cloudy
7:20 PM 66.2 °F 46.4 °F 49% 30.21 in 6.2 mi NW 4.6 mph - N/A   Partly Cloudy
7:50 PM 66.2 °F 48.2 °F 52% 30.24 in 6.2 mi NW 4.6 mph - N/A   Partly Cloudy
8:20 PM 66.2 °F 48.2 °F 52% 30.24 in 6.2 mi NW 4.6 mph - N/A   Partly Cloudy
9:50 PM 63 °F 48 °F 48% 30.27 in 25 mi WSW 5.8 mph - -   Mostly Cloudy